This demonstration page uses our WeatherBlox Daily Observations layout. Learn more.

Left ArrowRight Arrow

39.51506, -84.39828

Hourly Observations for March 23, 2021

Temp ( °F °C ) Dew Point ( °F °C ) Humidity (%) Winds ( mph kmh ) Pressure ( in mb ) Visibility ( mi km ) Precip ( " mm )
12:15 am 00:15 Clear 44 6.7 41 5 89 89 NNE 5 7 30.10 1019 10 16 N/A
12:35 am 00:35 Clear 44 6.4 41 4.8 90 90 N N/A 30.10 1019 10 16 N/A
12:55 am 00:55 Clear 42 5.8 39 3.9 88 88 NNE 3 6 30.10 1019 10 16 N/A
1:15 am 01:15 Clear 42 5.5 40 4.4 93 93 N N/A 30.10 1019 10 16 N/A
1:35 am 01:35 Clear 41 4.9 40 4.2 95 95 NE 3 6 30.10 1019 7 11 N/A
1:55 am 01:55 Clear 40 4.7 38 3.4 91 91 NNW 3 6 30.10 1019 10 16 N/A
2:15 am 02:15 Clear 40 4.5 38 3.6 94 94 NE 3 6 30.10 1019 10 16 N/A
2:35 am 02:35 Clear 40 4.5 38 3.5 93 93 NE 3 6 30.10 1019 10 16 N/A
2:55 am 02:55 Clear 39 3.7 38 3.4 98 98 N 5 7 30.10 1019 10 16 N/A
3:15 am 03:15 Clear 38 3.6 38 3.1 97 97 NNE 3 6 30.10 1019 10 16 N/A
3:35 am 03:35 Clear 40 4.2 38 3.1 93 93 NNE 5 7 30.09 1019 10 16 N/A
3:55 am 03:55 Clear 38 3.5 37 2.9 96 96 NNE 3 6 30.09 1019 10 16 N/A
4:15 am 04:15 Clear 40 4.3 38 3.6 95 95 NNE 6 9 30.07 1018 10 16 N/A
4:35 am 04:35 Clear 41 4.9 38 3.5 91 91 NE 5 7 30.07 1018 10 16 N/A
4:55 am 04:55 Clear 40 4.4 38 3.4 93 93 NE 3 6 30.07 1018 10 16 N/A
5:15 am 05:15 Clear 39 3.8 37 3 95 95 N N/A 30.08 1018 10 16 N/A
5:35 am 05:35 Clear 38 3.6 37 3 96 96 N 3 6 30.08 1018 10 16 N/A
5:55 am 05:55 Clear 39 3.8 37 2.7 93 93 N N/A 30.08 1018 10 16 N/A
6:15 am 06:15 Clear 39 3.7 37 2.7 93 93 N N/A 30.08 1018 10 16 N/A
6:35 am 06:35 Clear 40 4.2 37 2.7 90 90 NNE 3 6 30.06 1018 10 16 N/A
6:55 am 06:55 Partly Cloudy 40 4.3 37 2.9 91 91 N N/A 30.07 1018 10 16 N/A
7:15 am 07:15 Clear 40 4.4 37 2.9 90 90 N N/A 30.07 1018 10 16 N/A
7:35 am 07:35 Clear 41 4.8 36 2.4 85 85 N N/A 30.07 1018 10 16 N/A
7:55 am 07:55 Sunny 40 4.7 38 3.3 91 91 N N/A 30.08 1019 10 16 N/A
8:15 am 08:15 Sunny 42 5.4 37 2.6 82 82 N N/A 30.08 1019 10 16 N/A
8:35 am 08:35 Partly Cloudy 42 5.7 39 4.1 90 90 N N/A 30.09 1019 10 16 N/A
8:55 am 08:55 Sunny 44 6.5 41 4.9 90 90 N N/A 30.09 1019 10 16 N/A
9:15 am 09:15 Sunny 46 7.6 44 6.4 92 92 N N/A 30.09 1019 10 16 N/A
9:35 am 09:35 Sunny 49 9.5 45 7 85 85 N N/A 30.08 1019 10 16 N/A
9:55 am 09:55 Partly Cloudy 53 11.9 43 6.1 68 68 N N/A 30.07 1018 10 16 N/A
10:15 am 10:15 Mostly Cloudy 57 13.9 41 5.2 56 56 S 6 9 30.07 1018 10 16 N/A
10:35 am 10:35 Partly Cloudy 58 14.7 41 5.1 53 53 S 7 11 30.06 1018 10 16 N/A
10:55 am 10:55 Partly Cloudy 59 15.1 42 5.8 54 54 SSE 6 9 30.05 1017 10 16 N/A
11:15 am 11:15 Mostly Cloudy 61 16.1 42 5.4 49 49 SSE 10 17 30.04 1017 10 16 N/A
11:35 am 11:35 Sunny 62 16.7 41 5.1 46 46 SSE 12 19 30.03 1017 10 16 N/A
11:55 am 11:55 Partly Cloudy 65 18.2 41 5.2 43 43 SSE 12 19 30.02 1017 10 16 N/A
12:15 pm 12:15 Partly Cloudy 65 18.4 41 5.1 42 42 SSE 12 19 30.02 1017 10 16 N/A
12:35 pm 12:35 Cloudy 65 18.3 41 5.1 42 42 SSW 14 22 30.02 1017 10 16 N/A
12:55 pm 12:55 Cloudy 64 17.8 41 5.2 44 44 SSE 12 19 30.01 1016 10 16 N/A
1:15 pm 13:15 Cloudy 65 18.1 42 5.5 44 44 S 9 15 30.00 1016 10 16 N/A
1:35 pm 13:35 Cloudy 65 18.6 41 5.2 42 42 SSE 9 15 29.99 1016 10 16 N/A
1:55 pm 13:55 Cloudy 66 18.9 42 5.5 42 42 S 6 9 29.99 1015 10 16 N/A
2:15 pm 14:15 Cloudy 66 19 43 5.9 42 42 SE 7 11 29.98 1015 10 16 N/A
2:35 pm 14:35 Cloudy 66 19 42 5.8 42 42 SE 9 15 29.98 1015 10 16 N/A
2:55 pm 14:55 Cloudy 67 19.3 42 5.5 41 41 SSE 9 15 29.97 1015 10 16 N/A
3:15 pm 15:15 Cloudy 68 20 42 5.5 39 39 SE 10 17 29.94 1014 10 16 N/A
3:35 pm 15:35 Partly Cloudy 68 20.2 41 5.1 37 37 SE 7 11 29.92 1013 10 16 N/A
3:55 pm 15:55 Sunny 69 20.6 41 5 36 36 SE 13 20 29.91 1013 10 16 N/A
4:15 pm 16:15 Partly Cloudy 69 20.5 41 5.2 37 37 SSE 10 17 29.91 1013 10 16 N/A
4:35 pm 16:35 Sunny 69 20.6 41 5.1 36 36 SSE 6 9 29.89 1012 10 16 N/A
4:55 pm 16:55 Sunny 69 20.6 42 5.7 38 38 SE 7 11 29.88 1012 10 16 N/A
5:15 pm 17:15 Sunny 70 20.9 40 4.7 35 35 SSE 13 20 29.87 1012 10 16 N/A
5:35 pm 17:35 Sunny 70 20.9 40 4.2 34 34 SE 15 24 29.87 1012 10 16 N/A
5:55 pm 17:55 Partly Cloudy 69 20.7 40 4.3 34 34 SE 14 22 29.87 1012 10 16 N/A
6:15 pm 18:15 Cloudy 69 20.5 39 3.9 34 34 SE 10 17 29.87 1012 10 16 N/A
6:35 pm 18:35 Cloudy 69 20.3 39 4.1 35 35 SE 9 15 29.86 1011 10 16 N/A
6:55 pm 18:55 Cloudy 68 20.1 41 4.8 37 37 SE 9 15 29.87 1012 10 16 N/A
7:15 pm 19:15 Cloudy 67 19.6 42 5.3 39 39 ESE 7 11 29.86 1011 10 16 N/A
7:35 pm 19:35 Cloudy 67 19.4 42 5.3 40 40 SE 5 7 29.87 1011 10 16 N/A
7:55 pm 19:55 Cloudy 66 18.8 42 5.5 42 42 E 8 13 29.85 1011 10 16 N/A
8:15 pm 20:15 Cloudy 65 18.4 42 5.5 43 43 E 7 11 29.85 1011 10 16 N/A
8:35 pm 20:35 Cloudy 66 18.9 41 4.9 40 40 ESE 9 15 29.86 1011 10 16 N/A
8:55 pm 20:55 Cloudy 66 18.8 40 4.3 38 38 ESE 10 17 29.86 1011 10 16 N/A
9:15 pm 21:15 Cloudy 66 18.8 40 4.3 38 38 SE 8 13 29.86 1011 10 16 N/A
9:35 pm 21:35 Cloudy 66 18.7 40 4.2 38 38 ESE 7 11 29.86 1011 10 16 N/A
9:55 pm 21:55 Cloudy 65 18.6 39 4 38 38 ESE 8 13 29.86 1011 10 16 N/A
10:15 pm 22:15 Cloudy 65 18.5 39 4.1 39 39 ESE 7 11 29.85 1011 10 16 N/A
10:35 pm 22:35 Cloudy 65 18.4 39 4.1 39 39 ESE 9 15 29.85 1011 10 16 N/A
10:55 pm 22:55 Cloudy 65 18.5 40 4.3 39 39 SE 10 17 29.85 1011 10 16 N/A
11:15 pm 23:15 Cloudy 65 18.1 40 4.6 41 41 SE 9 15 29.85 1011 10 16 N/A
11:35 pm 23:35 Cloudy 65 18.1 40 4.7 41 41 SE 12 19 29.85 1011 10 16 N/A
11:55 pm 23:55 Cloudy 64 17.8 41 4.9 43 43 SE 10 17 29.85 1011 10 16 N/A

Powered by AerisWeather